Regional Weather Roundup
Issued by NWS San Angelo, TX

Home | Current Version | Previous Version | Text Only | Print | Product List | Glossary On
Versions: 1 2 3 4 5 6 7 8 9 10 11 12 13 14 15 16 17 18 19 20 21 22 23 24 25 26 27 28 29 30 31 32 33 34 35 36 37 38 39 40 41 42 43 44 45 46 47 48 49 50
000
ASUS44 KSJT 211410
RWRSJT
WEST CENTRAL TEXAS REGIONAL WEATHER ROUNDUP
NATIONAL WEATHER SERVICE SAN ANGELO TX
900 AM CDT SUN SEP 21 2014

NOTE: "FAIR" INDICATES FEW OR NO CLOUDS BELOW 12,000 FEET WITH NO
SIGNIFICANT WEATHER AND/OR OBSTRUCTIONS TO VISIBILITY.

TXZ049-054-064>066-071>073-076>078-098-099-113-114-127-128-139-140-
154-155-168>170-211500
...LOCATIONS ACROSS WEST CENTRAL TEXAS...

CITY           SKY/WX    TMP DP  RH WIND       PRES   REMARKS
SAN ANGELO     CLOUDY    72  70  93 E5        30.13R
ABILENE        PTSUNNY   71  69  93 S5        30.15R
DYESS AFB      PTSUNNY   74  62  64 SE2       30.14R
JUNCTION       PTSUNNY   73  69  87 CALM      30.12R
SWEETWATER     CLOUDY    72  72 100 E3        30.19R
BROWNWOOD      MOSUNNY   72  68  88 CALM      30.13R
COLEMAN        MOSUNNY   73  69  89 CALM      30.14R
SONORA         PTSUNNY   73  70  88 E6        30.18R
OZONA          PTSUNNY   72  70  94 SE5       30.16R
BRADY          CLOUDY    72  72 100 E3        30.13R
$$

TEXAS PANHANDLE/OKLAHOMA PANHANDLE

CITY           SKY/WX    TMP DP  RH WIND       PRES   REMARKS
AMARILLO       MOSUNNY   68  66  93 W5        30.24R
BORGER         MOSUNNY   69  63  81 W3        30.21R
CANADIAN       CLOUDY    70  69  96 E3        30.19R
DALHART        SUNNY     67  59  75 NE17G24   30.29R
DUMAS          CLOUDY    64  62  95 N9        30.26R FOG
GUYMON         NOT AVBL
HEREFORD       CLOUDY    67  67 100 CALM      30.28R FOG
PAMPA          PTSUNNY   67  65  92 W6        30.22S FOG
PERRYTON       SUNNY     68  62  82 NE16G24   30.23R
$$

SOUTHERN PANHANDLE/SOUTH PLAINS/ROLLING PLAINS

CITY           SKY/WX    TMP DP  RH WIND       PRES   REMARKS
LUBBOCK        LGT RAIN  68  67  96 N7        30.21R VSB 1/4
SNYDER         CLOUDY    71  70  97 E5        30.17R FOG
CHILDRESS      SUNNY     75  70  84 N5        30.17R
SEMINOLE       LGT RAIN  67  66  96 CALM      30.20R
$$

PERMIAN BASIN

CITY           SKY/WX    TMP DP  RH WIND       PRES   REMARKS
MIDLAND        CLOUDY    71  70  96 E6        30.16R FOG
ODESSA         LGT RAIN  72  69  90 SE5       30.17R FOG
WINK           CLOUDY    73  70  90 SE10      30.12R
$$

FAR WEST/SOUTHWEST MOUNTAINS/TRANS PECOS

CITY           SKY/WX    TMP DP  RH WIND       PRES   REMARKS
ALPINE         CLOUDY    64  63  96 CALM      30.26R
DRYDEN           N/A     78  72  81 E8        30.09R
EL PASO        PTSUNNY   71  64  78 N6        30.15R
FORT STOCKTON  PTSUNNY   72  68  87 SE7       30.13R
GUADALUPE PASS FOG       63  63 100 E21         N/A  VSB 1/4
MARFA          CLOUDY    63  63 100 CALM      30.24R
PECOS          CLOUDY    73  69  88 E5        30.11R
$$

DALLAS/FORT WORTH METROPLEX

CITY           SKY/WX    TMP DP  RH WIND       PRES   REMARKS
DFW AIRPORT    MOSUNNY   79  65  62 CALM      30.09R
FTW MEACHAM    SUNNY     78  66  66 CALM      30.10R
DAL-EXECUTIVE  SUNNY     79  66  64 CALM      30.10R
GRAND PRAIRIE  SUNNY     77  64  65 MISG      30.12R
ADDISON        SUNNY     77  64  65 CALM      30.10R
MESQUITE       SUNNY     73  64  73 CALM      30.10R
LANCASTER      SUNNY     73  65  75 CALM      30.11R
$$

NORTH CENTRAL TEXAS

CITY           SKY/WX    TMP DP  RH WIND       PRES   REMARKS
SHRMAN/DENISON SUNNY     74  66  77 CALM      30.11R
GAINESVILLE    SUNNY     73  65  76 CALM      30.13R
BRIDGEPORT     SUNNY     72  64  75 CALM      30.13R
DENTON         SUNNY     74  64  71 CALM      30.10R
WAXAHACHIE     SUNNY     77  64  65 CALM      30.12R
GRANBURY       SUNNY     72  67  82 CALM      30.12R
$$

WESTERN NORTH TEXAS

CITY           SKY/WX    TMP DP  RH WIND       PRES   REMARKS
WICHITA FALLS  SUNNY     75  67  76 S5        30.11R
VERNON         MOSUNNY   75  69  83 CALM      30.13R
BRECKENRIDGE   SUNNY     75  66  72 CALM      30.12R
COMANCHE       SUNNY     70  70 100 CALM      30.14R
$$

CENTRAL AND SOUTH CENTRAL TEXAS

CITY           SKY/WX    TMP DP  RH WIND       PRES   REMARKS
AUSTIN/BERGSTM SUNNY     77  72  84 NE3       30.07R
WACO           SUNNY     76  69  79 CALM      30.09R
HILLSBORO      SUNNY     77  67  69 CALM      30.10R
TEMPLE         SUNNY     77  66  69 CALM      30.08S
KILLEEN-GRAY   MOSUNNY   77  70  78 CALM      30.10R
FORT HOOD      SUNNY     79  71  76 CALM      30.10R
GEORGETOWN     MOSUNNY   75  72  88 CALM      30.10R
LAGO VISTA     FAIR      78  70  78 NE3       30.11R
SAN MARCOS     SUNNY     77  70  78 NE7       30.08R
NEW BRAUNFELS  SUNNY     77  73  87 NE9       30.06R
RANDOLPH AFB   PTSUNNY   77  73  88 NE8       30.07R
SAN ANTONIO    PTSUNNY   78  72  81 E8        30.07R
STINSON        SUNNY     78  73  84 E9        30.04R
PLEASANTON     NOT AVBL
LA GRANGE      SUNNY     77  74  92 NE3       30.05R
GIDDINGS       SUNNY     75  71  87 NE5       30.11R
$$

EAST TEXAS

CITY           SKY/WX    TMP DP  RH WIND       PRES   REMARKS
PARIS          SUNNY     73  66  78 CALM      30.10R
CLARKSVILLE    NOT AVBL
TYLER          SUNNY     77  68  73 CALM      30.09R
LONGVIEW       SUNNY     75  68  78 W3        30.08R
PALESTINE      SUNNY     74  71  88 CALM      30.10R
NACOGDOCHES    SUNNY     72  68  88 NW3       30.08R
$$

TEXAS HILL COUNTRY AND EDWARDS PLATEAU

CITY           SKY/WX    TMP DP  RH WIND       PRES   REMARKS
LLANO          MOSUNNY   75  73  94 CALM      30.14R
HORSESHOE BAY  FAIR      74  74 100 CALM      30.11R
KERRVILLE      PTSUNNY   73  71  93 SE3       30.12R
FREDERICKSBRG  MOSUNNY   74  70  89 E5        30.12R
ROCKSPRINGS    PTSUNNY   72  70  94 E6        30.15S
HONDO          PTSUNNY   79  71  76 E9        30.08R
UVALDE         CLOUDY    75  73  93 E6        30.08R
DEL RIO        PTSUNNY   77  72  84 E7        30.04S
$$

SOUTHEAST TEXAS

CITY           SKY/WX    TMP DP  RH WIND       PRES   REMARKS
COLLEGE STN    SUNNY     78  71  79 NE5       30.07R
CALDWELL       SUNNY     73  72  94 CALM      30.11R
CROCKETT       SUNNY     77  73  88 NE5       30.11R
BRENHAM        SUNNY     78  74  87 NE3       30.07R
HUNTSVILLE     SUNNY     75  71  87 CALM      30.08R
CONROE         SUNNY     76  71  85 CALM      30.06R
HOUSTON BUSH   SUNNY     78  72  81 NE3       30.05R
HOUSTON HOBBY  MOSUNNY   79  73  82 NE6       30.03R
PERLAND        SUNNY     80  74  81 E8        30.05R
WHARTON        SUNNY     78  74  88 NE8       30.04R
$$

THE UPPER TEXAS COAST

CITY           SKY/WX    TMP DP  RH WIND       PRES   REMARKS
ORANGE         SUNNY     76  76 100 NE5       30.06R
PORT ARTHUR    SUNNY     80  72  76 NE5       30.04R
GALVESTON      PTSUNNY   81  77  88 N9        30.03R
ANGLETON       MOSUNNY   79  75  87 NE10      30.02R
BAY CITY       SUNNY    N/A N/A N/A NE8       30.01S
$$

TEXAS COASTAL BEND, RIO GRANDE PLAINS DEEP SOUTH TEXAS

CITY           SKY/WX    TMP DP  RH WIND       PRES   REMARKS
VICTORIA       SUNNY     80  77  90 NE12      30.02R
BEEVILLE       FAIR      78  76  93 NE9G16    30.01R
ROCKPORT       RAIN      77  75  93 NE10      29.99R FOG
PORT ARANSAS   RAIN      78  75  91 NE8       29.97R
PORT LAVACA    SUNNY     79  75  89 NE10      30.00S
CORPUS CHRISTI RAIN      76  75  97 N7        29.98S
KINGSVILLE NAS PTSUNNY   77  76  96 N8        29.98R
COTULLA        MOSUNNY   78  74  87 NE8       30.03R
LAREDO         CLOUDY    77  77 100 NE7       30.04R
BROWNSVILLE    SUNNY     80  76  87 N5        29.95R
PORT ISABEL    SUNNY     82  76  81 N8        29.95R
HEBBRONVILLE     N/A     76  74  96 N6        30.02R FOG
MCALLEN        MOSUNNY   79  76  90 N7        29.97R
WESLACO        MOSUNNY   78  75  90 CALM      29.96R
FALFURRIAS     PTSUNNY  N/A N/A N/A N6        29.97R
EDINBURG       MOSUNNY   79  76  90 N7        29.97S
$$



USA.gov is the U.S. government's official web portal to all federal, state and local government web resources and services.